Year,Month,Day,Hour,Minute,Value (Times are PST for temperature in C)
2018,04,26,00,00,13.40
2018,04,26,00,01,13.30
2018,04,26,00,02,13.30
2018,04,26,00,03,13.30
2018,04,26,00,04,13.30
2018,04,26,00,05,13.20
2018,04,26,00,06,13.20
2018,04,26,00,07,13.20
2018,04,26,00,08,13.20
2018,04,26,00,09,13.10
2018,04,26,00,10,13.10
2018,04,26,00,11,13.10
2018,04,26,00,12,13.10
2018,04,26,00,13,13.10
2018,04,26,00,14,13.10
2018,04,26,00,15,13.20
2018,04,26,00,16,13.30
2018,04,26,00,17,13.40
2018,04,26,00,18,13.60
2018,04,26,00,19,13.70
2018,04,26,00,20,13.80
2018,04,26,00,21,13.90
2018,04,26,00,22,14.00
2018,04,26,00,23,14.20
2018,04,26,00,24,14.30
2018,04,26,00,25,14.40
2018,04,26,00,26,14.50
2018,04,26,00,27,14.60
2018,04,26,00,28,14.70
2018,04,26,00,29,14.70
2018,04,26,00,30,14.70
2018,04,26,00,31,14.70
2018,04,26,00,32,14.60
2018,04,26,00,33,14.60
2018,04,26,00,34,14.50
2018,04,26,00,35,14.40
2018,04,26,00,36,14.20
2018,04,26,00,37,14.10
2018,04,26,00,38,14.10
2018,04,26,00,39,13.90
2018,04,26,00,40,13.90
2018,04,26,00,41,13.80
2018,04,26,00,42,13.80
2018,04,26,00,43,13.70
2018,04,26,00,44,13.70
2018,04,26,00,45,13.70
2018,04,26,00,46,13.60
2018,04,26,00,47,13.50
2018,04,26,00,48,13.40
2018,04,26,00,49,13.30
2018,04,26,00,50,13.30
2018,04,26,00,51,13.20
2018,04,26,00,52,13.20
2018,04,26,00,53,13.10
2018,04,26,00,54,13.10
2018,04,26,00,55,13.10
2018,04,26,00,56,13.10
2018,04,26,00,57,13.10
2018,04,26,00,58,13.00
2018,04,26,00,59,12.90
2018,04,26,01,00,12.90
2018,04,26,01,01,12.80
2018,04,26,01,02,12.80
2018,04,26,01,03,12.80
2018,04,26,01,04,12.70
2018,04,26,01,05,12.80
2018,04,26,01,06,12.80
2018,04,26,01,07,12.90
2018,04,26,01,08,13.00
2018,04,26,01,09,13.10
2018,04,26,01,10,13.20
2018,04,26,01,11,13.20
2018,04,26,01,12,13.20
2018,04,26,01,13,13.20
2018,04,26,01,14,13.20
2018,04,26,01,15,13.20
2018,04,26,01,16,13.20
2018,04,26,01,17,13.20
2018,04,26,01,18,13.20
2018,04,26,01,19,13.20
2018,04,26,01,20,13.20
2018,04,26,01,21,13.20
2018,04,26,01,22,13.10
2018,04,26,01,23,13.10
2018,04,26,01,24,13.10
2018,04,26,01,25,13.10
2018,04,26,01,26,13.10
2018,04,26,01,27,13.10
2018,04,26,01,28,13.10
2018,04,26,01,29,13.10
2018,04,26,01,30,13.10
2018,04,26,01,31,13.10
2018,04,26,01,32,13.10
2018,04,26,01,33,13.10
2018,04,26,01,34,13.10
2018,04,26,01,35,13.10
2018,04,26,01,36,13.20
2018,04,26,01,37,13.20
2018,04,26,01,38,13.30
2018,04,26,01,39,13.30
2018,04,26,01,40,13.30
2018,04,26,01,41,13.30
2018,04,26,01,42,13.20
2018,04,26,01,43,13.20
2018,04,26,01,44,13.20
2018,04,26,01,45,13.10
2018,04,26,01,46,13.10
2018,04,26,01,47,13.20
2018,04,26,01,48,13.20
2018,04,26,01,49,13.20
2018,04,26,01,50,13.20
2018,04,26,01,51,13.20
2018,04,26,01,52,13.20
2018,04,26,01,53,13.10
2018,04,26,01,54,13.10
2018,04,26,01,55,13.10
2018,04,26,01,56,13.10
2018,04,26,01,57,13.10
2018,04,26,01,58,13.20
2018,04,26,01,59,13.20
2018,04,26,02,00,13.20
2018,04,26,02,01,13.20
2018,04,26,02,02,13.20
2018,04,26,02,03,13.20
2018,04,26,02,04,13.10
2018,04,26,02,05,13.10
2018,04,26,02,06,13.00
2018,04,26,02,07,13.00
2018,04,26,02,08,12.90
2018,04,26,02,09,12.80
2018,04,26,02,10,12.70
2018,04,26,02,11,12.60
2018,04,26,02,12,12.50
2018,04,26,02,13,12.40
2018,04,26,02,14,12.40
2018,04,26,02,15,12.30
2018,04,26,02,16,12.30
2018,04,26,02,17,12.30
2018,04,26,02,18,12.30
2018,04,26,02,19,12.20
2018,04,26,02,20,12.20
2018,04,26,02,21,12.20
2018,04,26,02,22,12.10
2018,04,26,02,23,12.10
2018,04,26,02,24,12.10
2018,04,26,02,25,12.00
2018,04,26,02,26,12.00
2018,04,26,02,27,12.00
2018,04,26,02,28,12.10
2018,04,26,02,29,12.10
2018,04,26,02,30,12.10
2018,04,26,02,31,12.10
2018,04,26,02,32,12.10
2018,04,26,02,33,12.10
2018,04,26,02,34,12.00
2018,04,26,02,35,11.90
2018,04,26,02,36,11.90
2018,04,26,02,37,12.00
2018,04,26,02,38,12.10
2018,04,26,02,39,12.10
2018,04,26,02,40,12.20
2018,04,26,02,41,12.20
2018,04,26,02,42,12.30
2018,04,26,02,43,12.30
2018,04,26,02,44,12.30
2018,04,26,02,45,12.30
2018,04,26,02,46,12.30
2018,04,26,02,47,12.20
2018,04,26,02,48,12.20
2018,04,26,02,49,12.20
2018,04,26,02,50,12.20
2018,04,26,02,51,12.20
2018,04,26,02,52,12.30
2018,04,26,02,53,12.30
2018,04,26,02,54,12.30
2018,04,26,02,55,12.20
2018,04,26,02,56,12.20
2018,04,26,02,57,12.10
2018,04,26,02,58,12.10
2018,04,26,02,59,12.00
2018,04,26,03,00,12.00
2018,04,26,03,01,11.90
2018,04,26,03,02,11.90
2018,04,26,03,03,11.90
2018,04,26,03,04,11.80
2018,04,26,03,05,11.80
2018,04,26,03,06,11.70
2018,04,26,03,07,11.60
2018,04,26,03,08,11.60
2018,04,26,03,09,11.50
2018,04,26,03,10,11.40
2018,04,26,03,11,11.40
2018,04,26,03,12,11.30
2018,04,26,03,13,11.30
2018,04,26,03,14,11.40
2018,04,26,03,15,11.40
2018,04,26,03,16,11.50
2018,04,26,03,17,11.50
2018,04,26,03,18,11.60
2018,04,26,03,19,11.60
2018,04,26,03,20,11.70
2018,04,26,03,21,11.80
2018,04,26,03,22,11.80
2018,04,26,03,23,11.80
2018,04,26,03,24,11.80
2018,04,26,03,25,11.80
2018,04,26,03,26,11.80
2018,04,26,03,27,11.70
2018,04,26,03,28,11.80
2018,04,26,03,29,11.80
2018,04,26,03,30,11.70
2018,04,26,03,31,11.70
2018,04,26,03,32,11.70
2018,04,26,03,33,11.80
2018,04,26,03,34,11.80
2018,04,26,03,35,11.80
2018,04,26,03,36,11.90
2018,04,26,03,37,11.90
2018,04,26,03,38,12.00
2018,04,26,03,39,12.10
2018,04,26,03,40,12.20
2018,04,26,03,41,12.30
2018,04,26,03,42,12.40
2018,04,26,03,43,12.40
2018,04,26,03,44,12.40
2018,04,26,03,45,12.40
2018,04,26,03,46,12.40
2018,04,26,03,47,12.30
2018,04,26,03,48,12.30
2018,04,26,03,49,12.20
2018,04,26,03,50,12.20
2018,04,26,03,51,12.20
2018,04,26,03,52,12.20
2018,04,26,03,53,12.20
2018,04,26,03,54,12.10
2018,04,26,03,55,12.10
2018,04,26,03,56,12.00
2018,04,26,03,57,12.00
2018,04,26,03,58,11.90
2018,04,26,03,59,11.90
2018,04,26,04,00,11.80
2018,04,26,04,01,11.70
2018,04,26,04,02,11.70
2018,04,26,04,03,11.60
2018,04,26,04,04,11.60
2018,04,26,04,05,11.50
2018,04,26,04,06,11.50
2018,04,26,04,07,11.40
2018,04,26,04,08,11.40
2018,04,26,04,09,11.30
2018,04,26,04,10,11.30
2018,04,26,04,11,11.20
2018,04,26,04,12,11.20
2018,04,26,04,13,11.20
2018,04,26,04,14,11.10
2018,04,26,04,15,11.10
2018,04,26,04,16,11.00
2018,04,26,04,17,11.00
2018,04,26,04,18,10.90
2018,04,26,04,19,10.90
2018,04,26,04,20,10.90
2018,04,26,04,21,10.90
2018,04,26,04,22,10.80
2018,04,26,04,23,10.80
2018,04,26,04,24,10.80
2018,04,26,04,25,10.70
2018,04,26,04,26,10.70
2018,04,26,04,27,10.70
2018,04,26,04,28,10.70
2018,04,26,04,29,10.70
2018,04,26,04,30,10.60
2018,04,26,04,31,10.60
2018,04,26,04,32,10.60
2018,04,26,04,33,10.60
2018,04,26,04,34,10.60
2018,04,26,04,35,10.50
2018,04,26,04,36,10.50
2018,04,26,04,37,10.50
2018,04,26,04,38,10.40
2018,04,26,04,39,10.40
2018,04,26,04,40,10.40
2018,04,26,04,41,10.30
2018,04,26,04,42,10.30
2018,04,26,04,43,10.30
2018,04,26,04,44,10.20
2018,04,26,04,45,10.20
2018,04,26,04,46,10.20
2018,04,26,04,47,10.20
2018,04,26,04,48,10.20
2018,04,26,04,49,10.20
2018,04,26,04,50,10.20
2018,04,26,04,51,10.20
2018,04,26,04,52,10.20
2018,04,26,04,53,10.20
2018,04,26,04,54,10.20
2018,04,26,04,55,10.30
2018,04,26,04,56,10.40
2018,04,26,04,57,10.40
2018,04,26,04,58,10.50
2018,04,26,04,59,10.60
2018,04,26,05,00,10.60
2018,04,26,05,01,10.70
2018,04,26,05,02,10.70
2018,04,26,05,03,10.70
2018,04,26,05,04,10.80
2018,04,26,05,05,10.80
2018,04,26,05,06,10.80
2018,04,26,05,07,10.80
2018,04,26,05,08,10.80
2018,04,26,05,09,10.80
2018,04,26,05,10,10.70
2018,04,26,05,11,10.70
2018,04,26,05,12,10.70
2018,04,26,05,13,10.60
2018,04,26,05,14,10.60
2018,04,26,05,15,10.60
2018,04,26,05,16,10.60
2018,04,26,05,17,10.60
2018,04,26,05,18,10.50
2018,04,26,05,19,10.50
2018,04,26,05,20,10.40
2018,04,26,05,21,10.40
2018,04,26,05,22,10.40
2018,04,26,05,23,10.40
2018,04,26,05,24,10.50
2018,04,26,05,25,10.50
2018,04,26,05,26,10.60
2018,04,26,05,27,10.60
2018,04,26,05,28,10.70
2018,04,26,05,29,10.70
2018,04,26,05,30,10.80
2018,04,26,05,31,10.90
2018,04,26,05,32,11.00
2018,04,26,05,33,11.00
2018,04,26,05,34,11.10
2018,04,26,05,35,11.20
2018,04,26,05,36,11.20
2018,04,26,05,37,11.20
2018,04,26,05,38,11.20
2018,04,26,05,39,11.10
2018,04,26,05,40,11.10
2018,04,26,05,41,11.00
2018,04,26,05,42,10.90
2018,04,26,05,43,10.90
2018,04,26,05,44,10.90
2018,04,26,05,45,10.80
2018,04,26,05,46,10.80
2018,04,26,05,47,10.70
2018,04,26,05,48,10.70
2018,04,26,05,49,10.70
2018,04,26,05,50,10.70
2018,04,26,05,51,10.70
2018,04,26,05,52,10.60
2018,04,26,05,53,10.60
2018,04,26,05,54,10.60
2018,04,26,05,55,10.50
2018,04,26,05,56,10.40
2018,04,26,05,57,10.40
2018,04,26,05,58,10.40
2018,04,26,05,59,10.30
2018,04,26,06,00,10.30
2018,04,26,06,01,10.30
2018,04,26,06,02,10.30
2018,04,26,06,03,10.30
2018,04,26,06,04,10.20
2018,04,26,06,05,10.20
2018,04,26,06,06,10.20
2018,04,26,06,07,10.20
2018,04,26,06,08,10.20
2018,04,26,06,09,10.10
2018,04,26,06,10,10.10
2018,04,26,06,11,10.10
2018,04,26,06,12,10.10
2018,04,26,06,13,10.20
2018,04,26,06,14,10.20
2018,04,26,06,15,10.20
2018,04,26,06,16,10.20
2018,04,26,06,17,10.20
2018,04,26,06,18,10.20
2018,04,26,06,19,10.20
2018,04,26,06,20,10.20
2018,04,26,06,21,10.20
2018,04,26,06,22,10.20
2018,04,26,06,23,10.20
2018,04,26,06,24,10.20
2018,04,26,06,25,10.20
2018,04,26,06,26,10.10
2018,04,26,06,27,10.10
2018,04,26,06,28,10.10
2018,04,26,06,29,10.10
2018,04,26,06,30,10.00
2018,04,26,06,31,10.00
2018,04,26,06,32,10.00
2018,04,26,06,33,10.00
2018,04,26,06,34,10.00
2018,04,26,06,35,10.00
2018,04,26,06,36,10.10
2018,04,26,06,37,10.10
2018,04,26,06,38,10.10
2018,04,26,06,39,10.10
2018,04,26,06,40,10.10
2018,04,26,06,41,10.10
2018,04,26,06,42,10.10
2018,04,26,06,43,10.10
2018,04,26,06,44,10.10
2018,04,26,06,45,10.20
2018,04,26,06,46,10.20
2018,04,26,06,47,10.20
2018,04,26,06,48,10.30
2018,04,26,06,49,10.30
2018,04,26,06,50,10.40
2018,04,26,06,51,10.40
2018,04,26,06,52,10.50
2018,04,26,06,53,10.50
2018,04,26,06,54,10.60
2018,04,26,06,55,10.70
2018,04,26,06,56,10.70
2018,04,26,06,57,10.70
2018,04,26,06,58,10.70
2018,04,26,06,59,10.80
2018,04,26,07,00,10.80
2018,04,26,07,01,10.80
2018,04,26,07,02,10.90
2018,04,26,07,03,11.00
2018,04,26,07,04,11.10
2018,04,26,07,05,11.20
2018,04,26,07,06,11.30
2018,04,26,07,07,11.30
2018,04,26,07,08,11.30
2018,04,26,07,09,11.40
2018,04,26,07,10,11.40
2018,04,26,07,11,11.50
2018,04,26,07,12,11.50
2018,04,26,07,13,11.50
2018,04,26,07,14,11.50
2018,04,26,07,15,11.50
2018,04,26,07,16,11.60
2018,04,26,07,17,11.70
2018,04,26,07,18,11.70
2018,04,26,07,19,11.70
2018,04,26,07,20,11.70
2018,04,26,07,21,11.70
2018,04,26,07,22,11.60
2018,04,26,07,23,11.60
2018,04,26,07,24,11.60
2018,04,26,07,25,11.60
2018,04,26,07,26,11.60
2018,04,26,07,27,11.60
2018,04,26,07,28,11.50
2018,04,26,07,29,11.50
2018,04,26,07,30,11.50
2018,04,26,07,31,11.50
2018,04,26,07,32,11.40
2018,04,26,07,33,11.40
2018,04,26,07,34,11.40
2018,04,26,07,35,11.40
2018,04,26,07,36,11.30
2018,04,26,07,37,11.30
2018,04,26,07,38,11.30
2018,04,26,07,39,11.30
2018,04,26,07,40,11.30
2018,04,26,07,41,11.40
2018,04,26,07,42,11.40
2018,04,26,07,43,11.40
2018,04,26,07,44,11.40
2018,04,26,07,45,11.50
2018,04,26,07,46,11.50
2018,04,26,07,47,11.50
2018,04,26,07,48,11.60
2018,04,26,07,49,11.60
2018,04,26,07,50,11.70
2018,04,26,07,51,11.70
2018,04,26,07,52,11.70
2018,04,26,07,53,11.70
2018,04,26,07,54,11.70
2018,04,26,07,55,11.70
2018,04,26,07,56,11.70
2018,04,26,07,57,11.70
2018,04,26,07,58,11.60
2018,04,26,07,59,11.60
2018,04,26,08,00,11.70
2018,04,26,08,01,11.70
2018,04,26,08,02,11.70
2018,04,26,08,03,11.70
2018,04,26,08,04,11.60
2018,04,26,08,05,11.60
2018,04,26,08,06,11.60
2018,04,26,08,07,11.60
2018,04,26,08,08,11.60
2018,04,26,08,09,11.60
2018,04,26,08,10,11.60
2018,04,26,08,11,11.60
2018,04,26,08,12,11.60
2018,04,26,08,13,11.60
2018,04,26,08,14,11.60
2018,04,26,08,15,11.60
2018,04,26,08,16,11.60
2018,04,26,08,17,11.60
2018,04,26,08,18,11.70
2018,04,26,08,19,11.70
2018,04,26,08,20,11.80
2018,04,26,08,21,11.80
2018,04,26,08,22,11.80
2018,04,26,08,23,11.90
2018,04,26,08,24,11.90
2018,04,26,08,25,11.90
2018,04,26,08,26,12.00
2018,04,26,08,27,12.10
2018,04,26,08,28,12.10
2018,04,26,08,29,12.20
2018,04,26,08,30,12.20
2018,04,26,08,31,12.30
2018,04,26,08,32,12.40
2018,04,26,08,33,12.40
2018,04,26,08,34,12.50
2018,04,26,08,35,12.60
2018,04,26,08,36,12.60
2018,04,26,08,37,12.70
2018,04,26,08,38,12.70
2018,04,26,08,39,12.70
2018,04,26,08,40,12.80
2018,04,26,08,41,12.80
2018,04,26,08,42,12.90
2018,04,26,08,43,13.00
2018,04,26,08,44,13.00
2018,04,26,08,45,13.10
2018,04,26,08,46,13.10
2018,04,26,08,47,13.20
2018,04,26,08,48,13.20
2018,04,26,08,49,13.30
2018,04,26,08,50,13.30
2018,04,26,08,51,13.40
2018,04,26,08,52,13.40
2018,04,26,08,53,13.50
2018,04,26,08,54,13.50
2018,04,26,08,55,13.60
2018,04,26,08,56,13.70
2018,04,26,08,57,13.70
2018,04,26,08,58,13.80
2018,04,26,08,59,13.90
2018,04,26,09,00,13.90
2018,04,26,09,01,14.00
2018,04,26,09,02,14.00
2018,04,26,09,03,14.10
2018,04,26,09,04,14.20
2018,04,26,09,05,14.20
2018,04,26,09,06,14.20
2018,04,26,09,07,14.30
2018,04,26,09,08,14.30
2018,04,26,09,09,14.40
2018,04,26,09,10,14.40
2018,04,26,09,11,14.50
2018,04,26,09,12,14.50
2018,04,26,09,13,14.60
2018,04,26,09,14,14.60
2018,04,26,09,15,14.70
2018,04,26,09,16,14.80
2018,04,26,09,17,14.80
2018,04,26,09,18,14.90
2018,04,26,09,19,14.90
2018,04,26,09,20,15.00
2018,04,26,09,21,15.10
2018,04,26,09,22,15.10
2018,04,26,09,23,15.20
2018,04,26,09,24,15.20
2018,04,26,09,25,15.30
2018,04,26,09,26,15.30
2018,04,26,09,27,15.30
2018,04,26,09,28,15.30
2018,04,26,09,29,15.30
2018,04,26,09,30,15.30
2018,04,26,09,31,15.30
2018,04,26,09,32,15.30
2018,04,26,09,33,15.40
2018,04,26,09,34,15.40
2018,04,26,09,35,15.40
2018,04,26,09,36,15.50
2018,04,26,09,37,15.60
2018,04,26,09,38,15.60
2018,04,26,09,39,15.70
2018,04,26,09,40,15.70
2018,04,26,09,41,15.80
2018,04,26,09,42,15.80
2018,04,26,09,43,15.80
2018,04,26,09,44,15.80
2018,04,26,09,45,15.80
2018,04,26,09,46,15.90
2018,04,26,09,47,15.90
2018,04,26,09,48,15.90
2018,04,26,09,49,15.90
2018,04,26,09,50,15.90
2018,04,26,09,51,15.90
2018,04,26,09,52,15.90
2018,04,26,09,53,15.90
2018,04,26,09,54,15.90
2018,04,26,09,55,16.00
2018,04,26,09,56,16.00
2018,04,26,09,57,16.10
2018,04,26,09,58,16.10
2018,04,26,09,59,16.20
2018,04,26,10,00,16.20
2018,04,26,10,01,16.20
2018,04,26,10,02,16.30
2018,04,26,10,03,16.30
2018,04,26,10,04,16.30
2018,04,26,10,05,16.30
2018,04,26,10,06,16.40
2018,04,26,10,07,16.40
2018,04,26,10,08,16.40
2018,04,26,10,09,16.40
2018,04,26,10,10,16.50
2018,04,26,10,11,16.50
2018,04,26,10,12,16.60
2018,04,26,10,13,16.60
2018,04,26,10,14,16.60
2018,04,26,10,15,16.60
2018,04,26,10,16,16.70
2018,04,26,10,17,16.70
2018,04,26,10,18,16.70
2018,04,26,10,19,16.80
2018,04,26,10,20,16.80
2018,04,26,10,21,16.90
2018,04,26,10,22,16.90
2018,04,26,10,23,17.00
2018,04,26,10,24,17.10
2018,04,26,10,25,17.20
2018,04,26,10,26,17.20
2018,04,26,10,27,17.30
2018,04,26,10,28,17.30
2018,04,26,10,29,17.40
2018,04,26,10,30,17.40
2018,04,26,10,31,17.40
2018,04,26,10,32,17.50
2018,04,26,10,33,17.50
2018,04,26,10,34,17.60
2018,04,26,10,35,17.60
2018,04,26,10,36,17.70
2018,04,26,10,37,17.80
2018,04,26,10,38,17.90
2018,04,26,10,39,17.90
2018,04,26,10,40,18.00
2018,04,26,10,41,18.00
2018,04,26,10,42,18.10
2018,04,26,10,43,18.10
2018,04,26,10,44,18.10
2018,04,26,10,45,18.10
2018,04,26,10,46,18.20
2018,04,26,10,47,18.20
2018,04,26,10,48,18.20
2018,04,26,10,49,18.20
2018,04,26,10,50,18.20
2018,04,26,10,51,18.30
2018,04,26,10,52,18.30
2018,04,26,10,53,18.40
2018,04,26,10,54,18.50
2018,04,26,10,55,18.50
2018,04,26,10,56,18.60
2018,04,26,10,57,18.70
2018,04,26,10,58,18.70
2018,04,26,10,59,18.80
2018,04,26,11,00,18.80
2018,04,26,11,01,18.80
2018,04,26,11,02,18.80
2018,04,26,11,03,18.90
2018,04,26,11,04,18.90
2018,04,26,11,05,18.90
2018,04,26,11,06,19.00
2018,04,26,11,07,19.00
2018,04,26,11,08,19.10
2018,04,26,11,09,19.20
2018,04,26,11,10,19.20
2018,04,26,11,11,19.30
2018,04,26,11,12,19.30
2018,04,26,11,13,19.40
2018,04,26,11,14,19.40
2018,04,26,11,15,19.50
2018,04,26,11,16,19.50
2018,04,26,11,17,19.60
2018,04,26,11,18,19.60
2018,04,26,11,19,19.60
2018,04,26,11,20,19.60
2018,04,26,11,21,19.50
2018,04,26,11,22,19.40
2018,04,26,11,23,19.40
2018,04,26,11,24,19.40
2018,04,26,11,25,19.40
2018,04,26,11,26,19.40
2018,04,26,11,27,19.40
2018,04,26,11,28,19.40
2018,04,26,11,29,19.50
2018,04,26,11,30,19.50
2018,04,26,11,31,19.60
2018,04,26,11,32,19.60
2018,04,26,11,33,19.70
2018,04,26,11,34,19.70
2018,04,26,11,35,19.80
2018,04,26,11,36,19.80
2018,04,26,11,37,20.00
2018,04,26,11,38,20.10
2018,04,26,11,39,20.20
2018,04,26,11,40,20.30
2018,04,26,11,41,20.40
2018,04,26,11,42,20.50
2018,04,26,11,43,20.50
2018,04,26,11,44,20.60
2018,04,26,11,45,20.60
2018,04,26,11,46,20.60
2018,04,26,11,47,20.70
2018,04,26,11,48,20.70
2018,04,26,11,49,20.70
2018,04,26,11,50,20.70
2018,04,26,11,51,20.80
2018,04,26,11,52,20.90
2018,04,26,11,53,21.00
2018,04,26,11,54,21.00
2018,04,26,11,55,21.10
2018,04,26,11,56,21.10
2018,04,26,11,57,21.20
2018,04,26,11,58,21.20
2018,04,26,11,59,21.20
2018,04,26,12,00,21.20
2018,04,26,12,01,21.10
2018,04,26,12,02,21.00
2018,04,26,12,03,21.00
2018,04,26,12,04,20.90
2018,04,26,12,05,20.90
2018,04,26,12,06,20.90
2018,04,26,12,07,20.90
2018,04,26,12,08,20.90
2018,04,26,12,09,20.80
2018,04,26,12,10,20.50
2018,04,26,12,11,20.30
2018,04,26,12,12,20.20
2018,04,26,12,13,20.20
2018,04,26,12,14,20.20
2018,04,26,12,15,20.10
2018,04,26,12,16,20.00
2018,04,26,12,17,20.00
2018,04,26,12,18,20.00
2018,04,26,12,19,20.00
2018,04,26,12,20,20.20
2018,04,26,12,21,20.20
2018,04,26,12,22,20.30
2018,04,26,12,23,20.30
2018,04,26,12,24,20.30
2018,04,26,12,25,20.20
2018,04,26,12,26,20.20
2018,04,26,12,27,20.20
2018,04,26,12,28,20.20
2018,04,26,12,29,20.20
2018,04,26,12,30,20.30
2018,04,26,12,31,20.30
2018,04,26,12,32,20.40
2018,04,26,12,33,20.40
2018,04,26,12,34,20.40
2018,04,26,12,35,20.50
2018,04,26,12,36,20.50
2018,04,26,12,37,20.50
2018,04,26,12,38,20.60
2018,04,26,12,39,20.70
2018,04,26,12,40,20.80
2018,04,26,12,41,20.90
2018,04,26,12,42,21.00
2018,04,26,12,43,21.00
2018,04,26,12,44,21.10
2018,04,26,12,45,21.10
2018,04,26,12,46,21.10
2018,04,26,12,47,21.20
2018,04,26,12,48,21.20
2018,04,26,12,49,21.20
2018,04,26,12,50,21.20
2018,04,26,12,51,21.20
2018,04,26,12,52,21.20
2018,04,26,12,53,21.20
2018,04,26,12,54,21.20
2018,04,26,12,55,21.20
2018,04,26,12,56,21.20
2018,04,26,12,57,21.20
2018,04,26,12,58,21.30
2018,04,26,12,59,21.30
2018,04,26,13,00,21.30
2018,04,26,13,01,21.30
2018,04,26,13,02,21.30
2018,04,26,13,03,21.40
2018,04,26,13,04,21.40
2018,04,26,13,05,21.50
2018,04,26,13,06,21.60
2018,04,26,13,07,21.70
2018,04,26,13,08,21.80
2018,04,26,13,09,21.80
2018,04,26,13,10,21.80
2018,04,26,13,11,21.90
2018,04,26,13,12,22.10
2018,04,26,13,13,22.30
2018,04,26,13,14,22.30
2018,04,26,13,15,22.30
2018,04,26,13,16,22.40
2018,04,26,13,17,22.40
2018,04,26,13,18,22.40
2018,04,26,13,19,22.50
2018,04,26,13,20,22.60
2018,04,26,13,21,22.50
2018,04,26,13,22,22.50
2018,04,26,13,23,22.50
2018,04,26,13,24,22.50
2018,04,26,13,25,22.50
2018,04,26,13,26,22.50
2018,04,26,13,27,22.50
2018,04,26,13,28,22.50
2018,04,26,13,29,22.50
2018,04,26,13,30,22.50
2018,04,26,13,31,22.50
2018,04,26,13,32,22.50
2018,04,26,13,33,22.50
2018,04,26,13,34,22.40
2018,04,26,13,35,22.40
2018,04,26,13,36,22.40
2018,04,26,13,37,22.40
2018,04,26,13,38,22.40
2018,04,26,13,39,22.40
2018,04,26,13,40,22.40
2018,04,26,13,41,22.30
2018,04,26,13,42,22.30
2018,04,26,13,43,22.30
2018,04,26,13,44,22.30
2018,04,26,13,45,22.30
2018,04,26,13,46,22.30
2018,04,26,13,47,22.20
2018,04,26,13,48,22.20
2018,04,26,13,49,22.20
2018,04,26,13,50,22.10
2018,04,26,13,51,22.10
2018,04,26,13,52,22.00
2018,04,26,13,53,22.00
2018,04,26,13,54,21.90
2018,04,26,13,55,21.90
2018,04,26,13,56,21.90
2018,04,26,13,57,21.90
2018,04,26,13,58,21.90
2018,04,26,13,59,22.00
2018,04,26,14,00,22.10
2018,04,26,14,01,22.20
2018,04,26,14,02,22.30
2018,04,26,14,03,22.40
2018,04,26,14,04,22.40
2018,04,26,14,05,22.50
2018,04,26,14,06,22.50
2018,04,26,14,07,22.60
2018,04,26,14,08,22.60
2018,04,26,14,09,22.60
2018,04,26,14,10,22.70
2018,04,26,14,11,22.80
2018,04,26,14,12,22.90
2018,04,26,14,13,23.00
2018,04,26,14,14,23.00
2018,04,26,14,15,23.10
2018,04,26,14,16,23.10
2018,04,26,14,17,23.20
2018,04,26,14,18,23.30
2018,04,26,14,19,23.30
2018,04,26,14,20,23.30
2018,04,26,14,21,23.40
2018,04,26,14,22,23.50
2018,04,26,14,23,23.50
2018,04,26,14,24,23.60
2018,04,26,14,25,23.70
2018,04,26,14,26,23.80
2018,04,26,14,27,23.80
2018,04,26,14,28,23.70
2018,04,26,14,29,23.70
2018,04,26,14,30,23.70
2018,04,26,14,31,23.70
2018,04,26,14,32,23.70
2018,04,26,14,33,23.70
2018,04,26,14,34,23.70
2018,04,26,14,35,23.60
2018,04,26,14,36,23.60
2018,04,26,14,37,23.50
2018,04,26,14,38,23.40
2018,04,26,14,39,23.30
2018,04,26,14,40,23.30
2018,04,26,14,41,23.40
2018,04,26,14,42,23.40
2018,04,26,14,43,23.30
2018,04,26,14,44,23.30
2018,04,26,14,45,23.40
2018,04,26,14,46,23.50
2018,04,26,14,47,23.60
2018,04,26,14,48,23.70
2018,04,26,14,49,23.70
2018,04,26,14,50,23.70
2018,04,26,14,51,23.70
2018,04,26,14,52,23.60
2018,04,26,14,53,23.50
2018,04,26,14,54,23.50
2018,04,26,14,55,23.50
2018,04,26,14,56,23.50
2018,04,26,14,57,23.60
2018,04,26,14,58,23.70
2018,04,26,14,59,23.80
2018,04,26,15,00,23.90
2018,04,26,15,01,23.90
2018,04,26,15,02,24.00
2018,04,26,15,03,24.00
2018,04,26,15,04,24.00
2018,04,26,15,05,24.00
2018,04,26,15,06,24.00
2018,04,26,15,07,24.00
2018,04,26,15,08,24.00
2018,04,26,15,09,24.00
2018,04,26,15,10,24.00
2018,04,26,15,11,24.10
2018,04,26,15,12,24.10
2018,04,26,15,13,24.10
2018,04,26,15,14,24.10
2018,04,26,15,15,24.10
2018,04,26,15,16,24.20
2018,04,26,15,17,24.20
2018,04,26,15,18,24.20
2018,04,26,15,19,24.20
2018,04,26,15,20,24.20
2018,04,26,15,21,24.30
2018,04,26,15,22,24.40
2018,04,26,15,23,24.40
2018,04,26,15,24,24.60
2018,04,26,15,25,24.70
2018,04,26,15,26,24.80
2018,04,26,15,27,24.80
2018,04,26,15,28,24.90
2018,04,26,15,29,24.90
2018,04,26,15,30,25.00
2018,04,26,15,31,25.10
2018,04,26,15,32,25.10
2018,04,26,15,33,25.10
2018,04,26,15,34,25.10
2018,04,26,15,35,25.00
2018,04,26,15,36,24.90
2018,04,26,15,37,24.90
2018,04,26,15,38,24.80
2018,04,26,15,39,24.60
2018,04,26,15,40,24.40
2018,04,26,15,41,24.20
2018,04,26,15,42,24.00
2018,04,26,15,43,23.80
2018,04,26,15,44,23.60
2018,04,26,15,45,23.40
2018,04,26,15,46,23.30
2018,04,26,15,47,23.20
2018,04,26,15,48,23.10
2018,04,26,15,49,23.10
2018,04,26,15,50,23.20
2018,04,26,15,51,23.20
2018,04,26,15,52,23.20
2018,04,26,15,53,23.20
2018,04,26,15,54,23.20
2018,04,26,15,55,23.20
2018,04,26,15,56,23.20
2018,04,26,15,57,23.10
2018,04,26,15,58,23.10
2018,04,26,15,59,23.10
2018,04,26,16,00,23.10
2018,04,26,16,01,23.20
2018,04,26,16,02,23.20
2018,04,26,16,03,23.30
2018,04,26,16,04,23.50
2018,04,26,16,05,23.60
2018,04,26,16,06,23.80
2018,04,26,16,07,23.90
2018,04,26,16,08,24.00
2018,04,26,16,09,24.10
2018,04,26,16,10,24.30
2018,04,26,16,11,24.40
2018,04,26,16,12,24.50
2018,04,26,16,13,24.70
2018,04,26,16,14,24.80
2018,04,26,16,15,24.80
2018,04,26,16,16,24.90
2018,04,26,16,17,24.90
2018,04,26,16,18,24.90
2018,04,26,16,19,24.90
2018,04,26,16,20,24.90
2018,04,26,16,21,25.00
2018,04,26,16,22,25.00
2018,04,26,16,23,25.00
2018,04,26,16,24,24.90
2018,04,26,16,25,24.90
2018,04,26,16,26,24.80
2018,04,26,16,27,24.70
2018,04,26,16,28,24.60
2018,04,26,16,29,24.50
2018,04,26,16,30,24.40
2018,04,26,16,31,24.30
2018,04,26,16,32,24.20
2018,04,26,16,33,24.20
2018,04,26,16,34,24.20
2018,04,26,16,35,24.20
2018,04,26,16,36,24.30
2018,04,26,16,37,24.30
2018,04,26,16,38,24.40
2018,04,26,16,39,24.40
2018,04,26,16,40,24.50
2018,04,26,16,41,24.50
2018,04,26,16,42,24.50
2018,04,26,16,43,24.40
2018,04,26,16,44,24.40
2018,04,26,16,45,24.30
2018,04,26,16,46,24.20
2018,04,26,16,47,24.10
2018,04,26,16,48,24.10
2018,04,26,16,49,24.00
2018,04,26,16,50,23.90
2018,04,26,16,51,23.90
2018,04,26,16,52,23.90
2018,04,26,16,53,23.90
2018,04,26,16,54,23.90
2018,04,26,16,55,23.90
2018,04,26,16,56,23.90
2018,04,26,16,57,23.80
2018,04,26,16,58,23.80
2018,04,26,16,59,23.80
2018,04,26,17,00,23.80
2018,04,26,17,01,23.80
2018,04,26,17,02,23.90
2018,04,26,17,03,23.90
2018,04,26,17,04,23.90
2018,04,26,17,05,23.90
2018,04,26,17,06,23.90
2018,04,26,17,07,23.90
2018,04,26,17,08,23.80
2018,04,26,17,09,23.80
2018,04,26,17,10,23.80
2018,04,26,17,11,23.80
2018,04,26,17,12,23.70
2018,04,26,17,13,23.60
2018,04,26,17,14,23.50
2018,04,26,17,15,23.40
2018,04,26,17,16,23.40
2018,04,26,17,17,23.30
2018,04,26,17,18,23.30
2018,04,26,17,19,23.30